Terminal Aerodrome Forecast
Issued by NWS

Home | Current Version | Previous Version | Text Only | Print | Product List | Glossary On
Versions: 1 2 3 4 5 6 7 8 9 10 11 12 13
000
FTUS44 KTSA 201700
TAFBVO
TAF
KBVO 201724Z 2018/2118 22010G17KT P6SM SCT080
     FM210100 18007KT P6SM SKC
     FM211500 19014G20KT P6SM SCT250=

USA.gov is the U.S. government's official web portal to all federal, state and local government web resources and services.